Tracking 32523 objects as of 13-Dec-2025
HD Live streaming from Space Station
objects crossing your sky now

STARLINK-32847

Track STARLINK-32847 now!
10-day predictions
STARLINK-32847 is classified as:


NORAD ID: 62811
Int'l Code: 2025-018F
Perigee: 481.5 km
Apogee: 483.4 km
Inclination: 53.2 °
Period: 94.1 minutes
Semi major axis: 6853 km
RCS: Unknown
Launch date: January 24, 2025
Source: United States (US)
Launch site: AIR FORCE WESTERN TEST RANGE (AFWTR)
Your satellite tracking list
Your tracking list is empty




NASA's NSSDC Master Catalog

Two Line Element Set (TLE):
1 62811U 25018F   25346.30920197  .00024669  00000-0  84329-3 0  9991
2 62811  53.1609 355.2151 0001371  87.7117 272.4040 15.30160751 49796
Source of the keplerian elements: AFSPC